Theta_e
314 314 314 315 318 323 320 318 318 318 318 318 319 319 319 319 317 313 310 308 306 304 301 299 298 297 297 296 296 296 296 296 296 295 295 295 295 294 294 294 294 294 294
315 315 315 316 320 320 317 318 317 318 317 318 315 312 309 308 307 304 302 299 298 297 297 296 296 296 295 295 295 295 294 294 294 294 294 293 293 293 293 293 293 293 293
314 315 315 316 316 317 317 316 315 312 309 308 307 305 302 300 298 297 297 296 296 296 295 295 295 294 294 294 294 293 293 293 293 293 293 293 292 292 292 292 292 292 291
312 313 313 313 313 312 310 308 307 305 304 301 299 298 297 297 296 296 296 295 295 294 294 294 293 293 292 292 292 292 292 292 292 292 292 292 292 291 291 290 292 290 289
310 310 310 309 308 307 306 304 301 299 298 297 297 296 296 296 295 295 294 294 293 293 292 292 292 292 291 291 291 291 291 291 291 291 291 291 291 290 288 288 288 288 289
308 308 308 307 304 303 301 298 297 296 296 296 296 296 295 295 294 294 293 293 293 292 292 291 291 291 291 291 291 291 291 291 291 290 288 288 288 287 287 287 288 288 288
306 306 305 302 300 298 297 296 296 296 296 295 295 294 294 293 293 292 292 292 292 291 291 291 291 291 291 291 291 291 291 291 290 288 287 287 286 286 287 288 288 288 287
304 303 300 298 297 296 296 296 296 295 295 294 293 293 292 292 292 291 291 291 290 290 290 291 291 291 292 292 291 291 290 290 289 288 288 288 286 286 287 287 286 286 286
302 299 297 297 296 296 296 295 294 293 293 292 292 292 291 291 290 290 290 289 289 289 290 290 290 291 291 291 290 290 289 289 288 287 286 286 286 285 285 285 285 286 285
298 297 296 296 295 294 294 293 293 292 292 293 292 291 290 290 289 289 289 289 290 290 290 290 290 290 290 290 289 287 287 287 286 286 285 285 285 285 284 284 284 284 284
296 296 295 295 294 293 293 294 292 293 294 291 290 289 289 289 290 290 290 290 289 290 289 289 289 289 290 289 286 286 286 285 285 285 285 283 283 284 283 283 285 284 284
295 296 296 294 293 292 293 297 298 293 290 289 289 289 290 290 290 289 289 289 289 289 289 289 288 289 287 286 286 286 285 284 285 285 284 283 283 283 283 284 285 284 284
297 296 295 292 292 297 298 292 290 289 289 289 289 289 289 289 289 289 288 288 288 288 288 288 288 288 288 287 286 285 284 284 283 283 283 283 283 282 282 283 285 284 284
297 295 292 296 298 294 289 289 289 289 288 288 288 288 288 288 287 287 287 287 287 287 287 287 287 287 287 286 285 285 284 283 283 283 282 282 282 282 283 283 284 284 284
293 296 300 298 291 289 289 288 288 288 288 287 287 287 287 287 287 287 286 286 286 285 285 286 286 286 286 285 284 284 284 283 283 283 282 283 283 284 284 283 284 284 283
300 299 294 289 289 288 288 288 287 287 287 287 287 287 287 286 286 285 285 285 285 284 284 285 285 284 284 284 284 284 283 283 283 283 283 283 283 283 284 284 283 283 284
297 290 289 289 288 288 287 287 287 287 287 286 286 286 286 286 285 284 284 284 284 284 284 283 283 282 282 282 282 282 282 282 282 282 282 282 283 283 283 283 284 283 283
290 289 288 288 288 287 287 287 286 286 286 286 285 285 285 284 284 283 283 283 283 282 282 282 281 281 281 280 280 280 280 280 281 281 281 281 281 282 282 283 283 283 283
289 288 288 288 287 287 286 286 286 286 286 286 285 285 284 284 283 283 283 282 282 281 281 280 280 279 279 279 279 278 278 278 279 279 280 280 280 280 281 281 282 282 282
288 288 287 287 287 287 286 286 286 286 285 285 285 284 284 284 283 282 282 281 280 280 279 279 278 277 277 277 277 277 277 277 277 277 278 278 279 279 279 279 280 280 281
288 287 287 287 287 286 286 286 286 285 285 284 284 284 283 283 282 281 281 280 279 278 278 277 277 276 276 276 275 275 275 275 275 276 276 276 277 277 278 278 278 278 279
288 287 286 286 286 286 286 286 285 285 284 283 283 282 282 281 280 280 279 278 277 277 277 276 275 275 275 275 275 274 274 274 274 274 275 275 275 276 276 276 277 277 277
287 287 286 285 285 285 285 285 284 283 283 282 281 281 280 280 279 278 277 277 276 276 275 275 274 274 274 273 273 273 273 273 273 273 274 274 274 274 274 275 275 275 275
287 286 285 285 284 284 284 283 283 282 281 280 280 279 279 278 278 277 276 276 275 275 274 274 274 273 273 273 272 272 272 272 272 272 272 272 272 272 272 272 272 272 272
286 285 284 283 283 282 282 281 280 280 279 279 278 278 277 277 276 276 275 275 274 274 274 273 273 273 273 272 272 272 271 271 271 271 271 271 271 270 270 271 271 271 271
284 283 282 282 281 281 280 279 279 278 278 277 277 276 276 275 275 275 274 274 274 274 273 273 272 272 271 271 271 271 270 270 270 270 270 270 270 270 270 270 270 270 270
Wind_Speed
13 15 16 17 19 24 17 13 12 12 13 13 12 11 12 12 12 11 11 11 11 12 13 14 15 17 18 20 21 22 25 26 34 42 39 40 38 38 37 36 38 38 38
12 13 15 18 21 21 15 14 13 12 12 11 11 9 8 7 7 7 8 9 10 11 13 15 17 19 20 22 24 25 27 28 33 42 43 43 42 40 41 41 40 38 38
14 13 14 14 15 16 15 15 14 13 12 11 9 8 6 6 6 7 8 9 11 13 15 17 19 21 23 25 26 28 29 30 32 37 45 44 44 42 44 43 44 44 40
15 14 14 15 16 16 16 15 14 12 10 9 7 6 5 5 6 7 9 11 14 16 17 19 21 23 25 27 28 29 31 33 35 38 42 44 43 41 39 44 49 45 46
16 17 18 18 18 17 16 15 13 11 9 7 6 6 5 6 8 10 13 15 17 18 20 22 24 26 28 28 30 31 31 32 33 36 39 41 42 42 39 40 42 45 47
19 19 19 19 19 17 16 14 12 10 8 6 4 5 7 9 12 15 17 19 21 23 23 24 26 27 28 28 28 28 29 29 31 31 35 37 39 36 37 36 38 42 44
21 21 20 20 18 16 15 13 11 8 5 4 6 8 10 13 15 16 18 19 21 23 25 26 25 25 26 27 27 27 26 26 27 27 32 32 35 32 33 38 39 36 43
23 22 21 19 18 16 14 11 8 6 5 5 7 10 12 14 16 18 20 22 23 24 24 25 25 25 25 26 28 29 28 28 27 27 28 32 30 31 32 36 40 39 39
24 23 21 19 17 14 11 9 6 5 5 7 10 13 15 16 18 20 22 23 24 24 24 24 25 26 27 28 28 30 32 32 30 27 27 26 30 29 24 25 29 32 41
25 23 21 19 16 12 9 7 5 6 8 11 15 15 15 17 18 19 19 20 21 22 24 25 27 28 29 28 28 29 32 32 30 30 30 29 26 24 19 19 25 32 35
25 23 20 16 13 10 8 6 6 9 13 14 14 13 13 13 14 14 15 18 21 23 25 26 26 27 28 27 24 24 28 27 29 30 29 27 25 23 22 26 23 25 29
23 20 17 14 11 9 6 9 13 15 13 12 11 11 10 11 12 14 16 18 20 23 24 25 26 25 27 25 23 22 25 25 28 28 28 27 27 27 27 25 24 24 24
22 19 16 13 9 9 11 14 13 13 13 13 11 10 10 11 12 14 17 18 20 22 24 26 27 28 27 27 21 20 25 25 25 26 27 27 28 27 26 26 23 22 22
20 17 14 11 11 13 14 14 13 12 13 13 13 13 12 12 13 15 17 19 21 23 26 28 29 27 25 23 23 21 24 24 25 25 26 26 26 26 25 24 22 21 18
19 16 13 14 17 18 16 13 13 13 14 14 15 15 17 18 18 20 22 23 24 25 28 29 30 29 29 27 25 23 24 27 30 28 27 26 25 23 23 20 19 16 14
18 16 19 21 19 17 15 13 13 13 14 15 15 16 19 21 22 23 23 25 25 25 27 29 29 28 28 28 28 28 28 29 28 26 27 24 23 22 21 20 17 14 12
22 21 21 21 19 17 15 14 13 13 14 15 16 18 21 23 23 24 25 27 26 27 28 28 28 28 28 27 27 27 27 26 24 23 24 24 23 22 21 19 17 14 11
24 23 23 21 20 18 17 15 15 15 15 14 15 17 20 21 23 25 27 27 26 25 26 26 27 26 26 27 26 26 25 23 22 22 22 21 21 21 20 18 17 16 14
24 24 23 22 21 19 18 17 18 18 17 16 16 17 20 22 23 24 27 28 28 26 25 24 25 26 25 25 24 23 23 22 21 21 20 20 19 19 18 17 16 14 14
25 25 24 24 22 20 20 20 19 18 19 18 19 20 22 25 24 25 25 25 24 24 24 24 24 24 23 23 23 23 22 21 20 19 19 18 18 17 16 16 15 14 13
26 25 25 26 24 23 22 22 21 21 20 20 20 22 25 26 25 25 24 24 24 23 22 22 22 21 21 21 21 21 21 20 20 19 19 18 18 17 15 14 14 14 14
26 27 27 26 26 26 25 25 24 23 22 21 22 22 24 24 24 23 23 22 22 22 23 22 20 20 20 20 20 21 21 20 20 20 19 18 17 16 16 15 13 12 12
28 28 29 29 28 28 28 26 25 23 23 24 24 23 22 22 22 21 21 21 20 20 21 22 22 20 20 21 20 21 22 21 20 20 20 18 17 16 16 15 15 15 14
30 30 31 30 30 30 28 26 25 25 25 24 23 23 22 21 20 20 20 20 20 20 21 21 21 21 20 19 18 17 17 18 18 17 17 16 15 15 15 15 15 15 15
31 32 31 30 30 29 28 26 25 25 25 24 23 23 22 22 21 19 19 19 19 19 19 20 19 19 19 18 18 19 19 19 20 20 20 20 19 19 18 17 17 16 15
32 32 31 31 30 29 27 26 25 25 25 24 24 23 23 22 21 20 20 20 20 20 20 20 20 20 20 21 22 23 24 24 25 25 25 25 25 24 22 22 21 20 19
Wind_Direction
199 200 204 204 207 207 204 206 209 215 220 225 226 227 233 236 238 244 255 266 275 283 288 293 297 300 303 303 303 302 303 302 296 302 306 310 309 309 309 307 306 305 302
189 191 193 197 202 213 195 193 193 197 205 204 201 204 211 222 236 251 265 275 283 292 299 300 302 304 306 306 307 306 305 304 301 303 307 310 311 312 312 310 310 307 304
187 184 186 180 180 179 181 185 184 184 183 185 187 194 206 223 249 267 281 294 300 302 306 308 309 310 310 307 307 307 306 305 304 304 307 310 312 313 312 310 310 308 309
181 182 182 176 174 175 171 175 176 175 179 183 188 206 232 254 273 289 298 305 310 309 309 309 309 309 310 309 308 309 310 310 310 309 308 309 311 315 314 314 313 312 313
183 183 181 176 175 176 174 174 177 178 184 191 205 227 256 280 293 302 309 310 310 310 311 312 311 311 311 312 312 312 311 310 309 309 308 310 313 317 319 317 315 318 318
189 187 184 181 179 176 176 178 180 185 193 204 232 272 290 302 312 314 314 315 315 313 313 313 315 316 315 312 309 309 311 312 311 309 309 309 310 312 317 318 318 319 313
193 189 187 184 181 178 179 181 185 194 211 243 276 300 310 314 314 312 312 311 312 315 317 316 316 316 315 314 312 311 311 311 310 311 309 310 310 318 319 317 315 305 302
193 192 188 184 185 185 185 189 198 215 242 274 297 306 311 310 310 309 310 312 315 317 318 318 319 321 321 319 318 318 319 319 320 316 310 308 311 311 303 298 298 303 304
196 194 191 189 190 191 194 199 215 242 278 299 310 307 304 308 311 313 317 319 319 319 320 319 321 323 324 325 321 321 319 320 320 314 311 307 302 304 308 307 308 309 305
195 193 191 190 191 196 203 212 239 272 294 304 298 302 305 309 313 315 319 320 320 324 327 327 327 324 321 320 320 319 316 317 317 317 312 312 314 317 317 305 298 297 302
194 193 192 193 199 205 214 243 270 298 295 286 292 300 305 308 311 315 320 325 327 328 327 324 323 319 318 321 319 310 308 311 308 311 315 319 322 322 318 312 312 306 305
193 193 196 201 208 211 238 278 280 272 280 288 292 294 299 308 315 319 323 323 322 320 320 319 321 324 321 320 316 307 311 308 311 315 318 322 322 319 317 315 317 309 302
194 198 204 206 214 254 274 264 264 272 279 281 282 287 297 303 306 310 311 313 313 316 319 320 321 323 324 322 317 310 313 312 316 316 316 316 316 318 317 316 318 313 308
202 205 205 225 252 251 245 252 262 274 280 284 290 297 303 308 306 304 306 313 320 321 320 321 321 321 318 315 315 313 310 308 314 311 310 312 317 321 323 323 322 322 317
201 208 234 241 236 237 239 250 264 270 277 286 293 301 309 311 311 314 319 322 322 321 317 320 320 320 317 316 314 305 303 303 309 312 311 314 317 324 332 330 326 326 324
230 234 232 232 234 236 244 254 261 273 286 291 296 305 309 308 313 318 316 318 322 320 319 317 316 314 313 312 309 304 299 299 300 302 306 310 312 317 322 330 323 324 331
230 228 230 234 236 239 249 263 270 273 278 284 295 302 304 310 314 316 314 317 317 316 315 315 312 310 309 308 308 308 307 306 302 298 299 304 305 308 312 314 318 315 322
229 232 235 237 240 246 253 259 264 270 276 287 296 301 304 309 312 312 312 314 313 311 311 311 310 309 308 308 309 309 309 308 305 303 301 302 303 305 308 312 312 312 312
234 238 240 241 243 250 257 265 268 273 279 287 293 298 303 305 307 310 311 311 311 312 312 310 307 306 307 307 308 308 308 309 308 306 305 304 303 303 303 307 310 311 310
241 245 245 244 247 255 260 265 271 277 282 289 293 298 300 303 307 306 306 307 309 311 312 310 308 306 305 306 306 306 307 306 305 305 304 304 303 304 305 306 308 309 309
247 248 248 248 252 257 263 268 273 278 282 287 292 297 299 304 305 307 308 309 310 309 306 304 305 306 306 307 307 307 306 306 306 307 306 304 303 302 300 301 304 306 306
252 252 251 251 253 257 262 266 271 276 280 284 288 292 295 297 300 303 304 305 306 306 304 303 304 305 305 305 305 306 306 307 307 306 306 304 302 301 300 301 302 307 310
252 252 253 253 253 256 260 264 269 274 276 280 284 287 288 292 295 299 301 302 302 300 298 299 301 300 301 303 303 303 304 305 306 307 306 305 304 303 304 306 307 306 306
249 252 252 252 253 256 259 263 266 268 271 276 281 284 286 289 292 295 296 296 296 296 295 295 296 298 300 301 304 305 305 306 307 308 309 311 314 314 313 312 310 307 304
248 249 250 251 253 254 257 260 263 267 272 276 277 279 281 284 285 287 289 289 291 290 290 290 291 294 297 299 301 301 301 300 300 300 299 299 300 301 301 300 300 301 301
246 247 247 249 251 254 257 260 264 268 271 271 273 276 277 278 281 283 283 283 283 283 283 283 284 286 289 292 293 294 295 294 293 291 289 288 288 288 288 290 290 291 291